Orbital Elements
Epoch 2011 Oct. 6.0 TT = JDT 2455840.5
T 2011 Oct. 19.07828 TT MPC
q 1.4238285 (2000.0) P Q
n 0.14656285 Peri. 332.78990 -0.05100945 -0.95692682
a 3.5627618 Node 118.87653 +0.96536512 -0.12056570
e 0.6003582 Incl. 19.05020 +0.25586758 +0.26411167
P 6.72
From 2684 observations 1963 Sept. 12-2012 May 2, mean residual 0".6.
Nongravitational parameters A1 = +0.02, A2 = -0.0001.
|